User: anonymous   Login
Location: Boda
(47.1872°N, 9.5454°E)
Time: 15:33:22
(UTC+00:00)
Language:

Cosmos 389 Rocket - Orbit

View from above orbital plane
View from above orbital plane
View from above satellite
View from above satellite

Ground track
Ground track

The orbit data is extracted from the following two-line orbital elements,

1 04814U 70113B   21207.55160097  .00002052  00000-0  55956-4 0  9997
2 04814  81.1406  30.9698 0022746 320.6869  39.2717 15.36700263765166
Epoch (UTC): 26 July 2021 13:14:18
Eccentricity: 0.0022746
inclination: 81.1406°
perigee height: 440 km
apogee height: 471 km
right ascension of ascending node: 30.9698°
argument of perigee: 320.6869°
revolutions per day: 15.36700263
mean anomaly at epoch: 39.2717°
orbit number at epoch: 76516

The dashed part of the orbit path shows where the satellite is in the earth's shadow,  

DLR